Sheldon
Saturday 10:15 PM
Temperature32° (46°/14°)
Dew Point25°
Relative Humidity74
%
Visibility10
mi
Pressure1019.3
mb
Wind Direction
Wind SpeedCalm
Precipitation Today0.00"

Last 30 Observations

Time PresWx Temp DP Feels RH% Vsby Pressure Ceiling Direction Speed 1h Precip
9:55 PM 32° 25° 74
%
10
mi
1019.0
mb
Calm 0.00"
9:35 PM 32° 25° 26°74
%
10
mi
1018.6
mb
ESE
120°
7
mph
0.00"
9:15 PM 32° 25° 74
%
10
mi
1018.6
mb
0.00"
8:55 PM 34° 25° 28°69
%
10
mi
1018.6
mb
ESE
120°
7
mph
0.00"
8:35 PM 37° 25° 31°60
%
10
mi
1018.6
mb
SE
140°
9
mph
0.00"
8:15 PM 39° 23° 33°52
%
10
mi
1018.6
mb
SE
140°
10
mph
0.00"
7:55 PM 41° 23° 34°48
%
10
mi
1018.6
mb
SSE
150°
11
mph
0.00"
7:35 PM 43° 23° 37°45
%
10
mi
1018.6
mb
SSE
150°
11
mph
0.00"
7:15 PM 45° 21° 39°39
%
10
mi
1018.6
mb
SSE
150°
11
mph
0.00"
6:55 PM 45° 21° 38°39
%
10
mi
1018.6
mb
SSE
150°
14
mph
0.00"
6:35 PM 46° 19° 41°34
%
10
mi
1018.6
mb
SSE
150°
13
mph
(G20)
0.00"
6:15 PM 46° 19° 40°34
%
10
mi
1018.6
mb
SSE
150°
14
mph
0.00"
5:55 PM 46° 18° 41°31
%
10
mi
1018.6
mb
SE
130°
13
mph
(G18)
0.00"
5:35 PM 46° 18° 40°31
%
10
mi
1018.6
mb
SE
140°
15
mph
(G22)
0.00"
5:15 PM 46° 18° 41°31
%
10
mi
1018.6
mb
SE
130°
13
mph
0.00"
4:55 PM 46° 18° 42°31
%
10
mi
1019.0
mb
SSE
150°
9
mph
(G16)
0.00"
4:35 PM 46° 19° 42°34
%
10
mi
1019.3
mb
SSE
160°
8
mph
(G15)
0.00"
4:15 PM 46° 19° 41°34
%
10
mi
1019.3
mb
SSE
160°
11
mph
(G17)
0.00"
3:55 PM 46° 19° 42°34
%
10
mi
1019.7
mb
SSE
150°
8
mph
0.00"
3:35 PM 45° 19° 39°36
%
10
mi
1020.0
mb
SSE
160°
10
mph
(G16)
0.00"
3:15 PM 45° 19° 40°36
%
10
mi
1020.3
mb
SSE
160°
9
mph
0.00"
2:55 PM 43° 18° 37°36
%
10
mi
1021.0
mb
SE
130°
10
mph
0.00"
2:35 PM 43° 18° 37°36
%
10
mi
1021.0
mb
SE
140°
9
mph
(G15)
0.00"
2:15 PM 41° 21° 35°45
%
10
mi
1021.3
mb
SE
130°
10
mph
0.00"
1:55 PM 41° 21° 36°45
%
10
mi
1022.0
mb
ESE
110°
8
mph
0.00"
1:35 PM 39° 21° 34°48
%
10
mi
1022.4
mb
SE
140°
8
mph
0.00"
1:15 PM 37° 19° 33°48
%
10
mi
1022.7
mb
SE
140°
6
mph
0.00"
12:55 PM 36° 21° 55
%
10
mi
1022.7
mb
Calm 0.00"
12:35 PM 36° 23° 30°60
%
10
mi
1023.0
mb
E
100°
7
mph
0.00"
12:15 PM 34° 23° 29°64
%
10
mi
1023.4
mb
Variable 5
mph
0.00"